| time (UTC) | temp F | wind direction | speed knots | gust knots | rain 1hr in | rain 24hr in | rain mn in | humidity % | barometer mb |
| 20260507091557 | 39 | 0 | 0.0 | 0.0 | 0.00 | 0.01 | 0.00 | 91 | 1015.6 |
| 20260507090049 | 39 | 0 | 0.0 | 0.9 | 0.00 | 0.01 | 0.00 | 91 | 1015.6 |
| 20260507084550 | 40 | 0 | 0.0 | 0.9 | 0.00 | 0.05 | 0.00 | 91 | 1015.5 |
| 20260507083105 | 40 | 0 | 0.0 | 0.0 | 0.00 | 0.05 | 0.00 | 91 | 1015.5 |
| 20260507081553 | 41 | 0 | 0.0 | 0.0 | 0.00 | 0.05 | 0.00 | 90 | 1015.3 |
| 20260507080050 | 42 | 0 | 0.0 | 0.9 | 0.00 | 0.05 | 0.00 | 90 | 1015.5 |
| 20260507074558 | 42 | 359 | 0.0 | 0.0 | 0.00 | 0.21 | 0.00 | 90 | 1015.4 |
| 20260507073058 | 42 | 0 | 0.0 | 0.0 | 0.00 | 0.21 | 0.00 | 90 | 1015.6 |
| 20260507071549 | 42 | 0 | 0.0 | 0.0 | 0.00 | 0.21 | 0.00 | 89 | 1015.5 |
| 20260507070047 | 43 | 0 | 0.0 | 0.0 | 0.00 | 0.21 | 0.00 | 89 | 1015.4 |
| 20260507064550 | 43 | 0 | 0.0 | 0.0 | 0.00 | 0.33 | 0.00 | 89 | 1015.5 |
| 20260507063050 | 43 | 0 | 0.0 | 0.0 | 0.00 | 0.33 | 0.00 | 89 | 1015.5 |
| 20260507061552 | 44 | 0 | 0.0 | 0.0 | 0.00 | 0.33 | 0.00 | 88 | 1015.5 |
| 20260507060049 | 45 | 0 | 0.0 | 0.0 | 0.00 | 0.33 | 0.00 | 87 | 1015.6 |
| 20260507054546 | 45 | 0 | 0.0 | 0.0 | 0.00 | 0.51 | 0.00 | 86 | 1015.8 |
| 20260507053045 | 45 | 0 | 0.0 | 0.0 | 0.00 | 0.51 | 0.00 | 85 | 1015.7 |
| 20260507051547 | 45 | 0 | 0.0 | 0.0 | 0.00 | 0.51 | 0.00 | 85 | 1015.7 |
| 20260507050045 | 46 | 0 | 0.0 | 0.0 | 0.00 | 0.51 | 0.00 | 84 | 1016.1 |
| 20260507044549 | 47 | 0 | 0.0 | 0.0 | 0.00 | 0.51 | 0.00 | 80 | 1016.1 |
| 20260507043045 | 47 | 359 | 0.9 | 1.7 | 0.00 | 0.51 | 0.00 | 80 | 1016.1 |
| 20260507041548 | 48 | 0 | 0.0 | 0.0 | 0.00 | 0.51 | 0.00 | 75 | 1016.1 |
| 20260507040046 | 50 | 0 | 0.0 | 0.9 | 0.00 | 0.51 | 0.00 | 75 | 1016.0 |
| 20260507034547 | 50 | 0 | 0.0 | 0.9 | 0.00 | 0.52 | 0.51 | 75 | 1015.9 |
| 20260507033049 | 51 | 359 | 0.9 | 2.6 | 0.00 | 0.52 | 0.51 | 72 | 1015.8 |
| 20260507031550 | 51 | 360 | 1.7 | 4.3 | 0.00 | 0.52 | 0.51 | 70 | 1015.8 |
| 20260507030050 | 52 | 1 | 0.9 | 2.6 | 0.00 | 0.52 | 0.51 | 70 | 1015.9 |
| 20260507024603 | 52 | 354 | 0.9 | 2.6 | 0.00 | 0.52 | 0.51 | 71 | 1015.9 |
| 20260507023055 | 52 | 12 | 0.0 | 0.0 | 0.00 | 0.52 | 0.51 | 70 | 1015.8 |
| 20260507021555 | 53 | 0 | 0.0 | 0.0 | 0.00 | 0.52 | 0.51 | 69 | 1015.7 |
| 20260507020104 | 53 | 0 | 0.0 | 0.0 | 0.00 | 0.52 | 0.51 | 69 | 1015.9 |
| 20260507014605 | 54 | 0 | 0.0 | 1.7 | 0.00 | 0.54 | 0.51 | 66 | 1015.4 |
| 20260507013050 | 54 | 28 | 0.9 | 2.6 | 0.00 | 0.54 | 0.51 | 66 | 1015.4 |
| 20260507011548 | 54 | 333 | 2.6 | 5.2 | 0.00 | 0.54 | 0.51 | 66 | 1015.3 |
| 20260507010050 | 54 | 344 | 0.9 | 4.3 | 0.00 | 0.54 | 0.51 | 68 | 1015.0 |
| 20260507004549 | 55 | 336 | 2.6 | 4.3 | 0.00 | 0.58 | 0.51 | 67 | 1015.0 |
| 20260507003047 | 55 | 334 | 0.9 | 4.3 | 0.00 | 0.58 | 0.51 | 67 | 1015.0 |
| 20260507001553 | 55 | 335 | 2.6 | 5.2 | 0.00 | 0.58 | 0.51 | 66 | 1014.6 |
| 20260507000053 | 56 | 328 | 2.6 | 7.8 | 0.00 | 0.58 | 0.51 | 64 | 1014.1 |
| 20260506234556 | 56 | 338 | 2.6 | 7.0 | 0.00 | 0.61 | 0.51 | 63 | 1013.9 |
| 20260506233048 | 56 | 351 | 2.6 | 7.0 | 0.00 | 0.61 | 0.51 | 63 | 1013.5 |
| 20260506231557 | 57 | 349 | 2.6 | 9.6 | 0.00 | 0.61 | 0.51 | 64 | 1013.6 |
| 20260506230056 | 57 | 337 | 2.6 | 9.6 | 0.00 | 0.61 | 0.51 | 62 | 1013.6 |
| 20260506224552 | 58 | 10 | 4.3 | 7.0 | 0.00 | 0.61 | 0.51 | 63 | 1013.6 |
| 20260506223054 | 58 | 321 | 2.6 | 6.1 | 0.00 | 0.61 | 0.51 | 60 | 1013.8 |
| 20260506221551 | 58 | 307 | 1.7 | 6.1 | 0.00 | 0.61 | 0.51 | 62 | 1013.9 |
| 20260506220055 | 58 | 326 | 2.6 | 4.3 | 0.00 | 0.61 | 0.51 | 60 | 1014.1 |
| 20260506214550 | 59 | 321 | 2.6 | 7.0 | 0.00 | 0.61 | 0.51 | 59 | 1013.6 |
| 20260506213104 | 59 | 338 | 3.5 | 7.8 | 0.00 | 0.61 | 0.51 | 57 | 1013.6 |
| 20260506211605 | 59 | 343 | 2.6 | 5.2 | 0.00 | 0.61 | 0.51 | 57 | 1013.6 |
| 20260506210100 | 59 | 34 | 1.7 | 7.0 | 0.00 | 0.61 | 0.51 | 57 | 1013.3 |
| 20260506204558 | 60 | 303 | 2.6 | 6.1 | 0.00 | 0.61 | 0.51 | 58 | 1013.5 |
| 20260506203052 | 60 | 14 | 1.7 | 7.0 | 0.00 | 0.61 | 0.51 | 58 | 1013.3 |
| 20260506201601 | 59 | 346 | 3.5 | 9.6 | 0.00 | 0.61 | 0.51 | 59 | 1013.4 |
| 20260506200058 | 59 | 340 | 2.6 | 9.6 | 0.00 | 0.61 | 0.51 | 61 | 1013.7 |
| 20260506194558 | 59 | 10 | 3.5 | 7.8 | 0.00 | 0.61 | 0.51 | 60 | 1013.7 |
| 20260506193046 | 60 | 313 | 4.3 | 11.3 | 0.00 | 0.61 | 0.51 | 60 | 1013.5 |
| 20260506191552 | 60 | 327 | 1.7 | 7.8 | 0.00 | 0.61 | 0.51 | 60 | 1013.4 |
| 20260506190055 | 59 | 56 | 1.7 | 8.7 | 0.00 | 0.61 | 0.51 | 64 | 1013.3 |
| 20260506184604 | 60 | 323 | 2.6 | 7.0 | 0.00 | 0.61 | 0.51 | 62 | 1013.3 |
| 20260506183100 | 59 | 24 | 3.5 | 7.8 | 0.00 | 0.61 | 0.51 | 64 | 1013.2 |
| 20260506181551 | 58 | 348 | 3.5 | 7.0 | 0.00 | 0.61 | 0.51 | 64 | 1013.5 |
| 20260506180052 | 58 | 358 | 1.7 | 9.6 | 0.00 | 0.61 | 0.51 | 70 | 1013.6 |
| 20260506174551 | 57 | 20 | 3.5 | 12.2 | 0.00 | 0.61 | 0.51 | 71 | 1013.5 |
| 20260506173052 | 58 | 39 | 4.3 | 9.6 | 0.00 | 0.61 | 0.51 | 69 | 1013.6 |
| 20260506171553 | 57 | 302 | 3.5 | 8.7 | 0.00 | 0.61 | 0.51 | 69 | 1013.7 |
| 20260506170108 | 56 | 5 | 2.6 | 7.8 | 0.00 | 0.61 | 0.51 | 73 | 1013.7 |
| 20260506164551 | 56 | 43 | 3.5 | 7.0 | 0.00 | 0.61 | 0.51 | 76 | 1013.7 |
| 20260506163058 | 55 | 294 | 1.7 | 7.8 | 0.00 | 0.61 | 0.51 | 75 | 1013.8 |
| 20260506161550 | 54 | 25 | 2.6 | 6.1 | 0.00 | 0.61 | 0.51 | 80 | 1013.8 |
| 20260506160048 | 54 | 298 | 2.6 | 8.7 | 0.00 | 0.61 | 0.51 | 81 | 1013.5 |
| 20260506154552 | 52 | 298 | 3.5 | 7.0 | 0.00 | 0.61 | 0.51 | 83 | 1013.4 |
| 20260506153047 | 52 | 347 | 2.6 | 5.2 | 0.00 | 0.61 | 0.51 | 84 | 1013.5 |
| 20260506151549 | 52 | 314 | 2.6 | 6.1 | 0.00 | 0.61 | 0.51 | 86 | 1013.4 |
| 20260506150049 | 52 | 23 | 2.6 | 7.8 | 0.00 | 0.61 | 0.51 | 86 | 1013.1 |
| 20260506144559 | 51 | 6 | 2.6 | 7.0 | 0.00 | 0.61 | 0.51 | 87 | 1012.8 |
| 20260506143045 | 50 | 39 | 1.7 | 7.0 | 0.00 | 0.61 | 0.51 | 89 | 1012.6 |
| 20260506141545 | 49 | 51 | 4.3 | 7.0 | 0.00 | 0.61 | 0.51 | 90 | 1012.4 |
| 20260506140058 | 48 | 338 | 3.5 | 7.0 | 0.00 | 0.61 | 0.51 | 91 | 1012.1 |
| 20260506134556 | 47 | 28 | 4.3 | 8.7 | 0.00 | 0.61 | 0.51 | 91 | 1012.4 |
| 20260506133053 | 47 | 333 | 3.5 | 7.8 | 0.00 | 0.61 | 0.51 | 91 | 1012.4 |
| 20260506131600 | 47 | 289 | 1.7 | 8.7 | 0.00 | 0.61 | 0.51 | 92 | 1012.3 |
| 20260506130100 | 47 | 328 | 3.5 | 9.6 | 0.00 | 0.61 | 0.51 | 92 | 1011.5 |
| 20260506124557 | 46 | 316 | 3.5 | 7.0 | 0.00 | 0.61 | 0.51 | 92 | 1011.5 |
| 20260506123053 | 46 | 342 | 2.6 | 9.6 | 0.00 | 0.61 | 0.51 | 92 | 1011.8 |
| 20260506121557 | 46 | 323 | 4.3 | 7.8 | 0.00 | 0.61 | 0.51 | 92 | 1011.1 |
| 20260506120056 | 46 | 287 | 2.6 | 7.0 | 0.00 | 0.61 | 0.51 | 92 | 1010.8 |
| 20260506114552 | 46 | 338 | 4.3 | 7.8 | 0.00 | 0.61 | 0.51 | 92 | 1010.4 |
| 20260506113055 | 46 | 326 | 2.6 | 7.0 | 0.00 | 0.61 | 0.51 | 92 | 1009.9 |
| 20260506111552 | 46 | 321 | 4.3 | 7.0 | 0.00 | 0.61 | 0.51 | 92 | 1009.5 |
| 20260506110054 | 46 | 325 | 2.6 | 5.2 | 0.00 | 0.61 | 0.51 | 92 | 1009.2 |
| 20260506104550 | 47 | 1 | 2.6 | 8.7 | 0.00 | 0.61 | 0.51 | 92 | 1009.0 |
| 20260506103052 | 47 | 349 | 5.2 | 9.6 | 0.00 | 0.61 | 0.51 | 92 | 1008.8 |
| 20260506101551 | 47 | 360 | 3.5 | 9.6 | 0.00 | 0.61 | 0.51 | 92 | 1008.9 |
| 20260506100050 | 47 | 321 | 4.3 | 10.4 | 0.01 | 0.61 | 0.51 | 92 | 1008.8 |
| 20260506094601 | 47 | 313 | 6.1 | 12.2 | 0.01 | 0.61 | 0.51 | 92 | 1008.7 |
| 20260506093053 | 48 | 5 | 4.3 | 13.9 | 0.02 | 0.61 | 0.51 | 92 | 1008.1 |